"Pseudo-MPEC" for P215ww6

Created 2020 Sep 19 11:07:55 UT using Find_Orb

Click here for an explanation of pseudo-MPECs

 
 Astrometry: 
     P215ww6  C2020 09 11vBU#aHcPp]o?[ow@H(8d-VvjPE+$[M8buU8E8aLXBu/=CkC6/*F+F52
     P215ww6  C2020 09 11tvQYUInUv`qr;/Astrometryq.Kw@GsOdpua`*kredacted;,6@)F52
     P215ww6  C2020 09 11AS8DHm@bel$Nd2yaRG4[1+0sk;R+85lMJn@DV+7ZZUF3pRZ+hFjxF52
     P215ww6  C2020 09 11s5m7gRPXvO\jJ'F/r[C'[Ww47\7LT0bH)T,,3(5Ir9*rI-l]i#[#F52
     P215ww6  C2020 09 12oqY,D3q`5sCj%)W-?Y2eQ[g_(%(+`+T1aU+XoA+9e0BBq;PNg[c/F51
     P215ww6  C2020 09 12tE4QNa__%Fo1X,c1qM.mD#IN+k0oT^:BaEJH+c(+XmQy[bJ/J=-NF51
     P215ww6  C2020 09 12@\Y1F(e*CaEB1H'u*3-w+^vf!FOK=]S]s3Isclicko4W8P#5a%\/F51
     P215ww6  C2020 09 12)D,4((U](*cEA\n)+gytEkJe'CjLFv;(Xherepf:TO_vEuDO'2(UF51
     P215ww6  C2020 09 181s%3DnwF^#l4rulh;,wDEMi@qr!]VnNfor5[(ZO%g\M!Umw=SN;xF51
     P215ww6  C2020 09 18!*explanationsMWt01Q%_@:gjF'W]TYlVCMZrh2ML+]1o1j.Q*vF51

Station data:
(F51) Pan-STARRS 1, Haleakala  (N20.707235 W156.255910)  US/Hawaii.
   Observers N. Primak, A. Schultz, S. Watters, J. Thiel, T. Goggia. Measurer
   PS1 Science Consortium. 1.8-m Ritchey-Chrétien + CCD.
(F52) Pan-STARRS 2, Haleakala  (N20.707384 W156.255910)  US/Hawaii. 1.8-m
   Ritchey-Chrétien + CCD.

Orbital elements:  P215ww6
   Perihelion 2021 Mar 17.292714 +/- 5.85 TT =  7:01:30 (JD 2459290.792714)
Epoch 2020 Sep 18.0 TT = JDT 2459110.5   Earth MOID: 0.7796   AutoNEOCP
M 287.83547795 +/- 1.2              (J2000 ecliptic)
n   0.40026310 +/- 0.00644          Peri.  276.76746 +/- 0.18
a   1.82349960 +/- 0.0196           Node   151.68384 +/- 0.24
e   0.0854804 +/- 0.00978           Incl.   24.21104 +/- 0.9
P   2.46/899.39d           H 20.6   G  0.15   U  9.4  
q 1.66762608 +/- 0.0345    Q 1.97937312 +/- 0.00587
From 10 observations 2020 Sept. 11-18; mean residual 0".08
Residuals in arcseconds: 
200911 F52  .18+  .15+    200912 F51  .00   .07+    200918 F51  .01-  .03-    
200911 F52  .09-  .03-    200912 F51  .08+  .10-    200918 F51  .01+  .04+    
200911 F52  .04+  .01-    200912 F51  .06-  .02+    
200911 F52  .17-  .10-    200912 F51  .01+  .00     

Ephemerides (geocentric):
Date (UTC) HH   RA              Dec         delta   r     elong  mag " sig PA
---- -- -- --  -------------   -----------  ------ ------ -----  --- ---- ---
2020 09 19 11  22 39 45.942   -23 13 20.24  .83419 1.7867 152.6 22.3 1.34  46
2020 09 19 12  22 39 44.144   -23 14 17.09  .83435 1.7866 152.5 22.3 1.37  46
2020 09 19 13  22 39 42.349   -23 15 13.88  .83452 1.7866 152.5 22.3 1.41  47
2020 09 19 14  22 39 40.557   -23 16 10.62  .83469 1.7866 152.4 22.3 1.45  47
2020 09 19 15  22 39 38.767   -23 17 07.29  .83486 1.7865 152.4 22.3 1.48  47
2020 09 19 16  22 39 36.979   -23 18 03.90  .83502 1.7865 152.3 22.3 1.52  48
2020 09 19 17  22 39 35.195   -23 19 00.44  .83519 1.7864 152.3 22.3 1.56  48
2020 09 19 18  22 39 33.412   -23 19 56.93  .83536 1.7864 152.2 22.3 1.60  48
2020 09 19 19  22 39 31.633   -23 20 53.35  .83553 1.7863 152.2 22.3 1.64  49
2020 09 19 20  22 39 29.855   -23 21 49.72  .83570 1.7863 152.1 22.3 1.68  49
2020 09 19 21  22 39 28.081   -23 22 46.02  .83587 1.7862 152.1 22.3 1.72  49
2020 09 19 22  22 39 26.309   -23 23 42.26  .83604 1.7862 152.0 22.3 1.76  49
2020 09 19 23  22 39 24.540   -23 24 38.44  .83621 1.7862 152.0 22.3 1.80  50
2020 09 20 00  22 39 22.773   -23 25 34.56  .83638 1.7861 151.9 22.3 1.85  50
2020 09 20 01  22 39 21.009   -23 26 30.61  .83655 1.7861 151.9 22.3 1.89  50
2020 09 20 02  22 39 19.248   -23 27 26.60  .83672 1.7860 151.8 22.3 1.93  50
2020 09 20 03  22 39 17.489   -23 28 22.53  .83690 1.7860 151.7 22.3 1.98  51
2020 09 20 04  22 39 15.733   -23 29 18.40  .83707 1.7859 151.7 22.3 2.02  51
2020 09 20 05  22 39 13.979   -23 30 14.21  .83724 1.7859 151.6 22.3 2.07  51
2020 09 20 06  22 39 12.228   -23 31 09.96  .83741 1.7858 151.6 22.3 2.11  51
2020 09 20 07  22 39 10.480   -23 32 05.64  .83759 1.7858 151.5 22.3 2.16  51
2020 09 20 08  22 39 08.734   -23 33 01.26  .83776 1.7857 151.5 22.3 2.21  52
2020 09 20 09  22 39 06.992   -23 33 56.82  .83794 1.7857 151.4 22.3 2.26  52
2020 09 20 10  22 39 05.251   -23 34 52.31  .83811 1.7857 151.4 22.3 2.30  52
2020 09 20 11  22 39 03.514   -23 35 47.75  .83829 1.7856 151.3 22.3 2.35  52
2020 09 20 12  22 39 01.779   -23 36 43.12  .83846 1.7856 151.3 22.3 2.40  52
2020 09 20 13  22 39 00.047   -23 37 38.43  .83864 1.7855 151.2 22.3 2.45  52
2020 09 20 14  22 38 58.318   -23 38 33.68  .83881 1.7855 151.2 22.3 2.51  53
2020 09 20 15  22 38 56.591   -23 39 28.86  .83899 1.7854 151.1 22.3 2.56  53
2020 09 20 16  22 38 54.867   -23 40 23.98  .83917 1.7854 151.1 22.3 2.61  53
2020 09 20 17  22 38 53.146   -23 41 19.04  .83934 1.7853 151.0 22.3 2.66  53
2020 09 20 18  22 38 51.427   -23 42 14.04  .83952 1.7853 151.0 22.3 2.72  53
2020 09 20 19  22 38 49.711   -23 43 08.97  .83970 1.7853 150.9 22.3 2.77  53
2020 09 20 20  22 38 47.998   -23 44 03.84  .83988 1.7852 150.9 22.3 2.83  53
2020 09 20 21  22 38 46.288   -23 44 58.65  .84006 1.7852 150.8 22.3 2.88  53
2020 09 20 22  22 38 44.581   -23 45 53.40  .84023 1.7851 150.8 22.3 2.94  53
2020 09 20 23  22 38 42.876   -23 46 48.08  .84041 1.7851 150.7 22.3 3.00  54
2020 09 21 00  22 38 41.174   -23 47 42.70  .84059 1.7850 150.7 22.3 3.05  54
2020 09 21 01  22 38 39.475   -23 48 37.26  .84077 1.7850 150.6 22.3 3.11  54
2020 09 21 02  22 38 37.778   -23 49 31.75  .84095 1.7849 150.6 22.3 3.17  54
2020 09 21 03  22 38 36.085   -23 50 26.18  .84113 1.7849 150.5 22.3 3.23  54
2020 09 21 04  22 38 34.394   -23 51 20.55  .84132 1.7848 150.5 22.3 3.29  54
2020 09 21 05  22 38 32.706   -23 52 14.86  .84150 1.7848 150.4 22.3 3.35  54
2020 09 21 06  22 38 31.021   -23 53 09.10  .84168 1.7848 150.4 22.3 3.41  54
2020 09 21 07  22 38 29.338   -23 54 03.28  .84186 1.7847 150.3 22.3 3.47  54
2020 09 21 08  22 38 27.659   -23 54 57.39  .84204 1.7847 150.3 22.3 3.54  54
2020 09 21 09  22 38 25.982   -23 55 51.44  .84223 1.7846 150.2 22.3 3.60  54
2020 09 21 10  22 38 24.308   -23 56 45.43  .84241 1.7846 150.2 22.3 3.67  55